Location: Hackberry
(29.5783°N, 96.8797°W)
Time: 13:00:41
(UTC+00:00)

Vanguard 2 Rocket - Pass Details

Date: 19 November 2024
Orbit: 554 x 3296 km, 32.9° (Epoch: 30 November)

Event Time Altitude Azimuth Distance (km) Brightness Sun altitude
Exits shadow 11:32:53 11° 240° (WSW) 3,626 9.5 -18.0°
Maximum altitude 11:42:53 78° 156° (SSE) 2,246 8.9 -15.9°
Drops below altitude 10° 12:00:29 10° 73° (ENE) 5,974 12.0 -12.2°
Sets 12:05:38 0° 73° (ENE) 7,178 12.5 -11.1°
